Volver al catálogo

STARLINK-35287

ActivoComunicacionesVLEO
NORAD 65754·PAYLOAD·🇺🇸 United States

Lanzado Sep 25, 2025 desde Cape Canaveral Space Force Station

Loading…

Próximos Pases (próximas 24 horas)

TLE

ActualizadoSource: CelesTrak SupGP

Época: Sep 15, 2026, 03:39 UTC

1 65754C 25216W   26258.15256944  .00017113  00000+0  50573-3 0  2585
2 65754  53.1570 170.9883 0001365  82.6298  57.6612 15.34373184    13

Sigue STARLINK-35287 en tiempo real con AllMySat

Download on the App Store